Flag for U.S.A. Weather past 2 weeks in Babylon, New York, U.S.A.

Now
72 °F

Clear.


Feels Like: 74 °F
Forecast: 71 / 83 °F
Wind: 5 mph from Southwest

Location: Republic Airport

Current Time: Jul 23, 2014 at 3:50:05 AM

Latest Report: Jul 23, 2014 at 1:53 AM


Visibility: 10 mi

Pressure: 30.03 "Hg

Humidity: 71%

Dew point: 62 °F

Location of BabylonLocation

Historic Weather in Babylon — Graph

°F

Babylon temperature yesterday

Maximum temperature yesterday: 83 °F (at 12:53 PM)
Minimum temperature yesterday: 67 °F (at 4:53 AM)
Average temperature yesterday: 73 °F

Past Weeks' High & Low Weather Summary

 TemperatureHumidityPressure
High87 °F (Jul 8, 12:53 PM)100% (Jul 14, 9:02 PM)30.24 "Hg (Jul 14, 9:02 PM)
Low62 °F (Jul 21, 5:53 AM)31% (Jul 18, 12:53 PM)29.70 "Hg (Jul 8, 7:53 PM)
Average73 °F74%30.03 "Hg
* Reported Jul 8 12:53 AM — Jul 23 12:53 AM, Babylon, Weather by CustomWeather, © 2014

Note: Actual official high and low records may vary slightly from our data, if they occured in-between our weather recording intervals... More about our weather records

Advertising

Babylon weather history for previous 24 hours

 ConditionsComfort  
Time TempWeatherWind HumidityBarometerVisibility
12:53 AM
Jul 23
73 °FClear.8 mph71%30.04 "Hg10 mi
11:53 PM
Jul 22
73 °FClear.9 mph71%30.06 "Hg10 mi
10:53 PM73 °FClear.15 mph69%30.06 "Hg10 mi
9:53 PM74 °FClear.15 mph64%30.08 "Hg10 mi
8:53 PM74 °FSunny.13 mph69%30.08 "Hg10 mi
7:53 PM74 °FSunny.15 mph69%30.09 "Hg10 mi
12:53 PM83 °FSunny.12 mph59%30.13 "Hg10 mi
11:53 AM82 °FSunny.10 mph60%30.14 "Hg10 mi
10:53 AM81 °FSunny.8 mph62%30.15 "Hg10 mi
9:53 AM79 °FSunny.6 mph62%30.16 "Hg10 mi
8:53 AM76 °FSunny.5 mph69%30.18 "Hg10 mi
7:53 AM72 °FSunny.5 mph73%30.18 "Hg10 mi
6:53 AM68 °FSunny.5 mph82%30.18 "Hg10 mi
5:53 AM67 °FClear.No wind85%30.17 "Hg10 mi
4:53 AM67 °FClear.No wind87%30.16 "Hg10 mi
3:53 AM68 °FClear.No wind84%30.16 "Hg10 mi
Weather by CustomWeather, © 2014

See weather overviewHow to use our weather pages